Weather History for Junction, TX

Change the Weather History Date:

Tuesday, November 20, 2012

  Actual Average Record
Temperature  
Mean Temperature 60 °F -  
Max Temperature 73 °F 66 °F 89 °F (1996)
Min Temperature 46 °F 40 °F 28 °F (2000)
Degree Days  
Heating Degree Days 6    
Growing Degree Days 10 (Base 50)    
Moisture  
Dew Point 45 °F    
Average Humidity 58    
Maximum Humidity 93    
Minimum Humidity 18    
Precipitation  
Precipitation 0.00 in - - ()
Sea Level Pressure  
Sea Level Pressure 30.12 in    
Wind  
Wind Speed 2 mph (West)    
Max Wind Speed 6 mph    
Max Gust Speed -    
Visibility 8 miles    
Events      
Averages and records for this station are not official NWS values.
T = Trace of Precipitation, MM = Missing Value Source: NWS Daily Summary

Daily Weather History Graph

Daily Weather History Graph

Search for Another Location

Airport:

Trip Planner

Search our weather history database for the weather conditions in past years. The results will help you decide how hot, cold, wet, or windy it might be!

Date:

Astronomy

Nov. 20, 2012 Rise Set
Actual Time 7:09 AM CST 5:39 PM CST
Civil Twilight 6:43 AM CST 6:05 PM CST
Nautical Twilight 6:14 AM CST 6:34 PM CST
Astronomical Twilight 5:45 AM CST 7:03 PM CST
Moon 12:59 PM CST (11/20) No Moon Set
Length of Visible Light 11h 21m
Length of Day
10h 29m
First Quarter, 51% of the Moon is Illuminated
Nov 20
First Quarter
Nov 28
Full
Dec 6
Last Quarter
Dec 13
New
Dec 19
First Quarter

Hourly Weather History & Observations

Time (CST) Temp. Dew Point Humidity Pressure Visibility Wind Dir Wind Speed Gust Speed Precip Events Conditions
12:51 AM 60.1 °F 54.0 °F 80% 30.10 in 8.0 mi Calm Calm - N/A   Clear
1:51 AM 59.0 °F 54.0 °F 83% 30.10 in 8.0 mi Calm Calm - N/A   Clear
2:51 AM 55.9 °F 53.1 °F 90% 30.10 in 7.0 mi West 3.5 mph - N/A   Clear
3:51 AM 53.1 °F 50.0 °F 89% 30.11 in 6.0 mi Calm Calm - N/A   Clear
4:51 AM 51.1 °F 48.9 °F 92% 30.11 in 6.0 mi NW 3.5 mph - N/A   Clear
5:51 AM 48.9 °F 46.9 °F 93% 30.12 in 5.0 mi Calm Calm - N/A   Clear
6:51 AM 48.0 °F 46.0 °F 93% 30.14 in 5.0 mi Calm Calm - N/A   Clear
7:51 AM 46.9 °F 45.0 °F 93% 30.16 in 4.0 mi Calm Calm - N/A   Partly Cloudy
8:51 AM 55.9 °F 51.1 °F 84% 30.17 in 6.0 mi Calm Calm - N/A   Haze
9:51 AM 64.9 °F 55.0 °F 70% 30.17 in 7.0 mi WSW 4.6 mph - N/A   Clear
10:51 AM 73.9 °F 57.0 °F 55% 30.15 in 8.0 mi West 5.8 mph - N/A   Clear
11:51 AM 77.0 °F 55.0 °F 47% 30.12 in 9.0 mi West 5.8 mph - N/A   Clear
12:51 PM 81.0 °F 46.9 °F 30% 30.09 in 10.0 mi West 4.6 mph - N/A   Clear
1:51 PM 82.0 °F 43.0 °F 25% 30.06 in 9.0 mi WNW 4.6 mph - N/A   Partly Cloudy
2:51 PM 82.0 °F 37.9 °F 21% 30.05 in 9.0 mi Variable 3.5 mph - N/A   Clear
3:51 PM 82.9 °F 35.1 °F 18% 30.05 in 9.0 mi West 5.8 mph - N/A   Clear
4:51 PM 81.0 °F 34.0 °F 18% 30.06 in 9.0 mi Calm Calm - N/A   Clear
5:51 PM 73.0 °F 37.0 °F 27% 30.08 in 8.0 mi Calm Calm - N/A   Clear
6:51 PM 66.0 °F 37.0 °F 34% 30.11 in 8.0 mi Calm Calm - N/A   Clear
7:51 PM 61.0 °F 35.1 °F 38% 30.14 in 9.0 mi Calm Calm - N/A   Clear
8:51 PM 57.0 °F 39.0 °F 51% 30.15 in 8.0 mi Calm Calm - N/A   Clear
9:51 PM 54.0 °F 36.0 °F 51% 30.15 in 8.0 mi NW 5.8 mph - N/A   Clear
10:51 PM 51.1 °F 35.1 °F 54% 30.15 in 8.0 mi West 3.5 mph - N/A   Clear
11:51 PM 50.0 °F 34.0 °F 54% 30.14 in 9.0 mi Calm Calm - N/A   Clear